Location: Palo Alto
(37.4420°N, 122.1420°W)
Time: 00:39:26
(UTC-07:00)

ARGOS - Visible Passes

Search period start: 23 July 2014 00:00
Search period end: 02 August 2014 00:00
Orbit: 820 x 836 km, 98.8° (Epoch: 22 July)

Date Brightness Start Highest point End Pass type
(mag) Time Alt. Az. Time Alt. Az. Time Alt. Az.
23 Jul 5.2 21:03:00 10° ENE 21:04:30 11° ENE 21:05:59 10° NE visible
23 Jul 3.0 22:42:20 48° SSE 22:43:55 89° WSW 22:49:18 10° NNW visible
24 Jul 3.2 22:23:44 40° SE 22:25:32 62° ENE 22:30:50 10° N visible
25 Jul 5.3 00:05:16 14° WSW 00:06:10 15° W 00:09:04 10° WNW visible
25 Jul 3.7 22:05:09 29° ESE 22:07:13 41° ENE 22:12:13 10° N visible
25 Jul 4.8 23:46:40 21° WSW 23:47:34 22° W 23:51:42 10° NW visible
26 Jul 4.2 21:46:33 20° ESE 21:48:57 28° ENE 21:53:28 10° N visible
26 Jul 4.3 23:28:05 31° WSW 23:29:02 33° W 23:33:51 10° NNW visible
27 Jul 4.7 21:27:58 14° E 21:30:44 20° ENE 21:34:29 10° NNE visible
27 Jul 3.7 23:09:30 44° SW 23:10:33 50° W 23:15:45 10° NNW visible
28 Jul 5.1 21:10:05 10° E 21:12:34 13° ENE 21:15:03 10° NNE visible
28 Jul 3.2 22:50:55 54° S 22:52:06 76° WSW 22:57:29 10° NNW visible
29 Jul 3.1 22:32:20 50° SE 22:33:42 74° ENE 22:39:04 10° N visible
30 Jul 5.5 00:13:52 12° W 00:14:27 12° W 00:16:26 10° WNW visible
30 Jul 3.5 22:13:45 37° ESE 22:15:22 49° ENE 22:20:31 10° N visible
30 Jul 5.1 23:55:17 18° W 23:55:50 19° W 23:59:31 10° NW visible
31 Jul 4.0 21:55:10 26° ESE 21:57:04 34° ENE 22:01:50 10° N visible
31 Jul 4.5 23:36:42 27° WSW 23:37:16 28° W 23:41:50 10° NW visible
01 Aug 4.5 21:36:36 18° E 21:38:50 23° ENE 21:42:58 10° NNE visible
01 Aug 3.9 23:18:08 40° WSW 23:18:46 42° W 23:23:50 10° NNW visible
